{"data":{"norad_id":33207,"intl_designator":"2008-035A","name":"ECHOSTAR 11","alt_names":[],"object_type":"PAYLOAD","status":"ACTIVE","operator":null,"country":"US","launch_date":"2008-07-16","launch_site_code":"SEAL","launch_vehicle":null,"mission":null,"orbit_class":"UNKNOWN","rcs_meters":32.4063,"size_class":null,"mass_kg":null,"dimensions":null,"purposes":["comms"],"wikipedia_slug":null,"has_3d_model":false,"image_url":null,"decayed_at":null,"tle_current":{"epoch":"2026-09-20T04:15:26.388864Z","epoch_age_seconds":42235,"freshness":"FRESH","line1":"1 33207U 08035A   26263.17738876 -.00000062  00000+0  00000+0 0  9994","line2":"2 33207   1.2435  82.9039 0002428  88.5399 141.7128  1.00272445 52164","mean_motion":1.00272445,"eccentricity":0.0002428,"inclination_deg":1.2435,"raan_deg":82.9039,"arg_perigee_deg":88.5399,"mean_anomaly_deg":141.7128,"bstar":0,"rev_number":5216,"period_min":1436.0874515426,"perigee_km":35776.17238825,"apogee_km":35796.647492244,"semimajor_km":42164.546940247,"source":"CELESTRAK","updated_at":"2026-09-20T09:00:35.133524Z"}}}